• In Germany
  • List of Countries
  • For 7 days
  • Water Temperature
  • Satellite Maps
  • Weather Map
  • Weather Widgets
  • user-avatar
    Login

    Hourly Weather Megri

    Today, 24 August, Thursday

    Time Temperature Precipitation Wind Pressure Humidity
    00:00 +22°C° 0 mm 3 mps 624 mmHg 48%
    01:00 +21°C° 0 mm 3 mps 624 mmHg 50%
    02:00 +21°C° 0 mm 3 mps 624 mmHg 52%
    03:00 +20°C° 0 mm 3 mps 624 mmHg 53%
    04:00 +20°C° 0 mm 3 mps 624 mmHg 54%
    05:00 +20°C° 0 mm 3 mps 624 mmHg 55%
    06:00 +19°C° 0 mm 3 mps 624 mmHg 57%
    07:00 +21°C° 0 mm 3 mps 625 mmHg 49%
    08:00 +23°C° 0 mm 4 mps 626 mmHg 42%
    09:00 +26°C° 0 mm 4 mps 627 mmHg 35%
    10:00 +27°C° 0 mm 4 mps 627 mmHg 32%
    11:00 +29°C° 0 mm 4 mps 627 mmHg 29%
    12:00 +30°C° 0 mm 5 mps 628 mmHg 26%
    13:00 +32°C° 0 mm 5 mps 627 mmHg 26%
    14:00 +32°C° 0 mm 5 mps 627 mmHg 25%
    15:00 +33°C° 0 mm 5 mps 627 mmHg 25%
    16:00 +30°C° 0 mm 5 mps 626 mmHg 27%
    17:00 +29°C° 0 mm 5 mps 626 mmHg 30%
    18:00 +27°C° 0 mm 6 mps 625 mmHg 33%
    19:00 +26°C° 0 mm 5 mps 625 mmHg 35%
    20:00 +23°C° 0 mm 5 mps 625 mmHg 38%
    21:00 +22°C° 0 mm 4 mps 625 mmHg 40%
    22:00 +21°C° 0 mm 4 mps 625 mmHg 41%
    23:00 +21°C° 0 mm 3 mps 625 mmHg 42%

    Tomorrow, 25 August, Friday

    Time Temperature Precipitation Wind Pressure Humidity
    00:00 +20°C° 0 mm 3 mps 625 mmHg 42%
    01:00 +20°C° 0 mm 3 mps 625 mmHg 43%
    02:00 +19°C° 0 mm 3 mps 625 mmHg 43%
    03:00 +19°C° 0 mm 3 mps 625 mmHg 43%
    04:00 +19°C° 0 mm 3 mps 625 mmHg 43%
    05:00 +19°C° 0 mm 3 mps 625 mmHg 42%
    06:00 +18°C° 0 mm 3 mps 625 mmHg 42%
    07:00 +20°C° 0 mm 3 mps 626 mmHg 36%
    08:00 +24°C° 0 mm 3 mps 627 mmHg 31%
    09:00 +26°C° 0 mm 4 mps 628 mmHg 26%
    10:00 +27°C° 0 mm 4 mps 628 mmHg 23%
    11:00 +28°C° 0 mm 4 mps 628 mmHg 21%
    12:00 +30°C° 0 mm 4 mps 628 mmHg 19%
    13:00 +30°C° 0 mm 5 mps 628 mmHg 18%
    14:00 +30°C° 0 mm 5 mps 627 mmHg 18%
    15:00 +32°C° 0 mm 5 mps 627 mmHg 18%
    16:00 +29°C° 0 mm 6 mps 626 mmHg 19%
    17:00 +28°C° 0 mm 6 mps 626 mmHg 21%
    18:00 +26°C° 0 mm 6 mps 625 mmHg 23%
    19:00 +25°C° 0 mm 5 mps 625 mmHg 25%
    20:00 +22°C° 0 mm 5 mps 625 mmHg 27%
    21:00 +21°C° 0 mm 4 mps 625 mmHg 28%
    22:00 +20°C° 0 mm 4 mps 625 mmHg 31%
    23:00 +19°C° 0 mm 4 mps 625 mmHg 34%

    Day after tomorrow, 26 August, Saturday

    Time Temperature Precipitation Wind Pressure Humidity
    00:00 +19°C° 0 mm 3 mps 625 mmHg 36%
    01:00 +18°C° 0 mm 3 mps 625 mmHg 38%
    02:00 +18°C° 0 mm 3 mps 625 mmHg 41%
    03:00 +18°C° 0 mm 3 mps 625 mmHg 43%
    04:00 +17°C° 0 mm 3 mps 625 mmHg 44%
    05:00 +17°C° 0 mm 3 mps 625 mmHg 45%
    06:00 +17°C° 0 mm 3 mps 625 mmHg 46%
    07:00 +19°C° 0 mm 3 mps 626 mmHg 40%
    08:00 +21°C° 0 mm 4 mps 626 mmHg 34%
    09:00 +23°C° 0 mm 4 mps 627 mmHg 28%
    10:00 +25°C° 0 mm 4 mps 627 mmHg 26%
    11:00 +27°C° 0 mm 4 mps 627 mmHg 24%
    12:00 +28°C° 0 mm 5 mps 627 mmHg 22%
    13:00 +28°C° 0 mm 5 mps 627 mmHg 21%
    14:00 +29°C° 0 mm 5 mps 626 mmHg 21%
    15:00 +29°C° 0 mm 6 mps 626 mmHg 21%
    16:00 +28°C° 0 mm 6 mps 626 mmHg 23%
    17:00 +26°C° 0 mm 6 mps 625 mmHg 25%
    18:00 +24°C° 0 mm 6 mps 625 mmHg 28%
    19:00 +23°C° 0 mm 5 mps 625 mmHg 31%
    20:00 +21°C° 0 mm 5 mps 625 mmHg 33%
    21:00 +20°C° 0 mm 4 mps 625 mmHg 36%
    22:00 +19°C° 0 mm 4 mps 624 mmHg 39%
    23:00 +18°C° 0 mm 4 mps 624 mmHg 41%

    27 August, Sunday

    Time Temperature Precipitation Wind Pressure Humidity
    00:00 +18°C° 0 mm 3 mps 624 mmHg 43%
    01:00 +17°C° 0 mm 3 mps 624 mmHg 44%
    02:00 +17°C° 0 mm 3 mps 624 mmHg 46%
    03:00 +17°C° 0 mm 3 mps 624 mmHg 47%
    04:00 +16°C° 0 mm 3 mps 624 mmHg 47%
    05:00 +16°C° 0 mm 3 mps 624 mmHg 46%
    06:00 +16°C° 0 mm 3 mps 624 mmHg 46%
    07:00 +18°C° 0 mm 3 mps 625 mmHg 40%
    08:00 +20°C° 0 mm 3 mps 625 mmHg 34%
    09:00 +22°C° 0 mm 4 mps 626 mmHg 29%
    10:00 +25°C° 0 mm 4 mps 626 mmHg 27%
    11:00 +26°C° 0 mm 4 mps 626 mmHg 25%
    12:00 +27°C° 0 mm 4 mps 626 mmHg 24%
    13:00 +28°C° 0 mm 4 mps 626 mmHg 24%
    14:00 +28°C° 0 mm 5 mps 625 mmHg 24%
    15:00 +29°C° 0 mm 5 mps 625 mmHg 24%
    16:00 +27°C° 0 mm 5 mps 625 mmHg 27%
    17:00 +26°C° 0 mm 5 mps 624 mmHg 30%
    18:00 +25°C° 0 mm 5 mps 624 mmHg 32%
    19:00 +23°C° 0 mm 5 mps 624 mmHg 36%
    20:00 +21°C° 0 mm 4 mps 624 mmHg 39%
    21:00 +20°C° 0 mm 4 mps 624 mmHg 42%
    22:00 +19°C° 0 mm 4 mps 624 mmHg 44%
    23:00 +19°C° 0 mm 3 mps 624 mmHg 46%

    28 August, Monday

    Time Temperature Precipitation Wind Pressure Humidity
    00:00 +18°C° 0 mm 3 mps 624 mmHg 48%
    01:00 +18°C° 0 mm 3 mps 624 mmHg 49%
    02:00 +17°C° 0 mm 3 mps 623 mmHg 50%
    03:00 +17°C° 0 mm 3 mps 623 mmHg 51%
    04:00 +17°C° 0 mm 3 mps 623 mmHg 51%
    05:00 +17°C° 0 mm 3 mps 624 mmHg 50%
    06:00 +17°C° 0 mm 3 mps 624 mmHg 50%
    07:00 +19°C° 0 mm 3 mps 624 mmHg 44%
    08:00 +20°C° 0 mm 3 mps 625 mmHg 39%
    09:00 +22°C° 0 mm 3 mps 626 mmHg 33%
    10:00 +25°C° 0 mm 3 mps 626 mmHg 30%
    11:00 +26°C° 0 mm 3 mps 626 mmHg 27%
    12:00 +28°C° 0 mm 3 mps 626 mmHg 25%
    13:00 +28°C° 0 mm 3 mps 625 mmHg 24%
    14:00 +29°C° 0 mm 3 mps 625 mmHg 23%
    15:00 +29°C° 0 mm 3 mps 625 mmHg 22%
    16:00 +28°C° 0 mm 3 mps 625 mmHg 24%
    17:00 +27°C° 0 mm 4 mps 624 mmHg 26%
    18:00 +26°C° 0 mm 4 mps 624 mmHg 29%
    19:00 +25°C° 0 mm 4 mps 624 mmHg 33%
    20:00 +22°C° 0 mm 4 mps 624 mmHg 38%
    21:00 +21°C° 0 mm 3 mps 623 mmHg 42%
    22:00 +20°C° 0 mm 3 mps 623 mmHg 44%
    23:00 +19°C° 0 mm 3 mps 623 mmHg 45%

    29 August, Tuesday

    Time Temperature Precipitation Wind Pressure Humidity
    00:00 +19°C° 0 mm 3 mps 623 mmHg 46%
    01:00 +19°C° 0 mm 3 mps 623 mmHg 48%
    02:00 +18°C° 0 mm 2 mps 623 mmHg 49%
    03:00 +18°C° 0 mm 2 mps 622 mmHg 51%
    04:00 +18°C° 0 mm 2 mps 623 mmHg 51%
    05:00 +18°C° 0 mm 2 mps 623 mmHg 51%
    06:00 +18°C° 0 mm 2 mps 623 mmHg 51%
    07:00 +20°C° 0 mm 2 mps 624 mmHg 45%
    08:00 +23°C° 0 mm 2 mps 624 mmHg 39%
    09:00 +25°C° 0 mm 2 mps 625 mmHg 33%
    10:00 +27°C° 0 mm 2 mps 625 mmHg 29%
    11:00 +28°C° 0 mm 2 mps 625 mmHg 25%
    12:00 +30°C° 0 mm 2 mps 625 mmHg 21%
    13:00 +30°C° 0 mm 2 mps 625 mmHg 19%
    14:00 +31°C° 0 mm 2 mps 625 mmHg 17%
    15:00 +31°C° 0 mm 2 mps 624 mmHg 15%
    16:00 +31°C° 0 mm 2 mps 624 mmHg 17%
    17:00 +30°C° 0 mm 2 mps 624 mmHg 19%
    18:00 +29°C° 0 mm 2 mps 623 mmHg 20%
    19:00 +27°C° 0 mm 2 mps 623 mmHg 25%
    20:00 +25°C° 0 mm 2 mps 623 mmHg 31%
    21:00 +24°C° 0 mm 2 mps 622 mmHg 36%
    22:00 +23°C° 0 mm 2 mps 622 mmHg 39%
    23:00 +21°C° 0 mm 2 mps 622 mmHg 42%
    Show more